• In Uzbekistan
  • List of Countries
  • For 7 days
  • Water Temperature
  • Satellite Maps
  • Weather Map
  • Weather Widgets
  • user-avatar
    Login

    Hourly Weather Canillo

    Today, 26 February, Sunday

    Time Temperature Precipitation Wind Pressure Humidity
    00:00 -2°C° 0 mm 1 mps 617 mmHg 83%
    01:00 -2°C° 0 mm 1 mps 617 mmHg 80%
    02:00 -2°C° 0 mm 1 mps 617 mmHg 77%
    03:00 -2°C° 0 mm 1 mps 617 mmHg 74%
    04:00 -2°C° 0 mm 1 mps 617 mmHg 72%
    05:00 -2°C° 0 mm 1 mps 617 mmHg 70%
    06:00 -2°C° 0 mm 1 mps 617 mmHg 68%
    07:00 0°C° 0 mm 1 mps 618 mmHg 62%
    08:00 +3°C° 0 mm 1 mps 619 mmHg 56%
    09:00 +5°C° 0 mm 1 mps 621 mmHg 50%
    10:00 +6°C° 0 mm 1 mps 621 mmHg 49%
    11:00 +8°C° 0 mm 1 mps 621 mmHg 48%
    12:00 +9°C° 0 mm 1 mps 621 mmHg 47%
    13:00 +9°C° 0 mm 1 mps 621 mmHg 50%
    14:00 +8°C° 0 mm 2 mps 620 mmHg 52%
    15:00 +8°C° 0 mm 2 mps 620 mmHg 54%
    16:00 +6°C° 0 mm 1 mps 619 mmHg 66%
    17:00 +3°C° 0 mm 1 mps 617 mmHg 78%
    18:00 0°C° 0 mm 1 mps 616 mmHg 90%
    19:00 -1°C° 0 mm 1 mps 616 mmHg 90%
    20:00 -1°C° 0 mm 1 mps 615 mmHg 90%
    21:00 -2°C° 0 mm 0 mps 615 mmHg 91%
    22:00 -1°C° 0 mm 1 mps 615 mmHg 90%
    23:00 -1°C° 0 mm 1 mps 615 mmHg 88%

    Tomorrow, 27 February, Monday

    Time Temperature Precipitation Wind Pressure Humidity
    00:00 -2°C° 0 mm 1 mps 615 mmHg 87%
    01:00 -2°C° 0 mm 1 mps 614 mmHg 85%
    02:00 -2°C° 0 mm 1 mps 614 mmHg 82%
    03:00 -2°C° 0 mm 1 mps 613 mmHg 80%
    04:00 -2°C° 0 mm 1 mps 613 mmHg 79%
    05:00 -2°C° 0 mm 1 mps 613 mmHg 79%
    06:00 -2°C° 0 mm 1 mps 613 mmHg 79%
    07:00 +1°C° 0 mm 1 mps 614 mmHg 72%
    08:00 +3°C° 0 mm 1 mps 615 mmHg 65%
    09:00 +6°C° 0 mm 1 mps 616 mmHg 58%
    10:00 +7°C° 0 mm 1 mps 616 mmHg 54%
    11:00 +7°C° 0 mm 2 mps 617 mmHg 50%
    12:00 +8°C° 0 mm 2 mps 617 mmHg 46%
    13:00 +8°C° 0 mm 2 mps 616 mmHg 47%
    14:00 +8°C° 0 mm 2 mps 616 mmHg 48%
    15:00 +8°C° 0 mm 2 mps 616 mmHg 50%
    16:00 +5°C° 0 mm 2 mps 615 mmHg 62%
    17:00 +4°C° 0 mm 1 mps 614 mmHg 74%
    18:00 +1°C° 0 mm 1 mps 612 mmHg 86%
    19:00 +1°C° 0 mm 1 mps 613 mmHg 87%
    20:00 0°C° 0 mm 1 mps 613 mmHg 89%
    21:00 0°C° 0 mm 1 mps 613 mmHg 90%
    22:00 0°C° 0 mm 1 mps 613 mmHg 91%
    23:00 0°C° 0 mm 1 mps 613 mmHg 91%

    Day after tomorrow, 28 February, Tuesday

    Time Temperature Precipitation Wind Pressure Humidity
    00:00 -1°C° 0 mm 1 mps 613 mmHg 91%
    01:00 -1°C° 0 mm 1 mps 612 mmHg 91%
    02:00 -1°C° 0 mm 1 mps 612 mmHg 90%
    03:00 -2°C° 0 mm 1 mps 611 mmHg 90%
    04:00 -2°C° 0 mm 1 mps 611 mmHg 89%
    05:00 -2°C° 0 mm 1 mps 611 mmHg 88%
    06:00 -2°C° 0 mm 1 mps 611 mmHg 87%
    07:00 0°C° 0 mm 1 mps 612 mmHg 78%
    08:00 +2°C° 0 mm 1 mps 613 mmHg 69%
    09:00 +4°C° 0 mm 1 mps 614 mmHg 61%
    10:00 +4°C° 0 mm 2 mps 614 mmHg 58%
    11:00 +4°C° 0 mm 3 mps 615 mmHg 54%
    12:00 +7°C° 0 mm 3 mps 615 mmHg 51%
    13:00 +5°C° 0.1 mm 3 mps 615 mmHg 55%
    14:00 +5°C° 0.1 mm 4 mps 615 mmHg 60%
    15:00 +4°C° 0.1 mm 4 mps 615 mmHg 64%
    16:00 +2°C° 0.2 mm 3 mps 614 mmHg 72%
    17:00 +1°C° 0.2 mm 3 mps 614 mmHg 80%
    18:00 -1°C° 0.2 mm 2 mps 614 mmHg 87%
    19:00 -1°C° 0 mm 2 mps 615 mmHg 88%
    20:00 -2°C° 0 mm 2 mps 615 mmHg 90%
    21:00 -2°C° 0 mm 2 mps 615 mmHg 91%
    22:00 -2°C° 0 mm 2 mps 615 mmHg 89%
    23:00 0°C° 0 mm 1 mps 615 mmHg 88%

    1 March, Wednesday

    Time Temperature Precipitation Wind Pressure Humidity
    00:00 0°C° 0 mm 1 mps 616 mmHg 87%
    01:00 0°C° 0 mm 1 mps 615 mmHg 86%
    02:00 -1°C° 0 mm 1 mps 615 mmHg 86%
    03:00 -1°C° 0 mm 1 mps 615 mmHg 86%
    04:00 -1°C° 0 mm 1 mps 616 mmHg 87%
    05:00 -1°C° 0 mm 1 mps 616 mmHg 87%
    06:00 -1°C° 0 mm 1 mps 617 mmHg 88%
    07:00 +1°C° 0 mm 1 mps 618 mmHg 83%
    08:00 +3°C° 0 mm 1 mps 619 mmHg 78%
    09:00 +5°C° 0 mm 1 mps 620 mmHg 73%
    10:00 +6°C° 0 mm 1 mps 620 mmHg 69%
    11:00 +6°C° 0 mm 2 mps 621 mmHg 66%
    12:00 +7°C° 0 mm 2 mps 621 mmHg 62%
    13:00 +7°C° 0 mm 2 mps 621 mmHg 65%
    14:00 +6°C° 0 mm 2 mps 620 mmHg 67%
    15:00 +6°C° 0 mm 2 mps 620 mmHg 70%
    16:00 +6°C° 0.1 mm 1 mps 620 mmHg 78%
    17:00 +4°C° 0.1 mm 1 mps 619 mmHg 85%
    18:00 +3°C° 0.1 mm 1 mps 619 mmHg 93%
    19:00 +2°C° 0 mm 1 mps 619 mmHg 93%
    20:00 +2°C° 0 mm 1 mps 620 mmHg 93%
    21:00 +2°C° 0 mm 1 mps 620 mmHg 94%
    22:00 +1°C° 0 mm 1 mps 620 mmHg 93%
    23:00 +1°C° 0 mm 1 mps 619 mmHg 92%

    2 March, Thursday

    Time Temperature Precipitation Wind Pressure Humidity
    00:00 +1°C° 0 mm 1 mps 619 mmHg 92%
    01:00 0°C° 0 mm 1 mps 619 mmHg 91%
    02:00 0°C° 0 mm 1 mps 619 mmHg 91%
    03:00 0°C° 0 mm 1 mps 618 mmHg 91%
    04:00 -1°C° 0 mm 1 mps 618 mmHg 91%
    05:00 -1°C° 0 mm 1 mps 618 mmHg 91%
    06:00 -1°C° 0 mm 1 mps 618 mmHg 92%
    07:00 +1°C° 0 mm 1 mps 619 mmHg 85%
    08:00 +4°C° 0 mm 1 mps 621 mmHg 79%
    09:00 +5°C° 0 mm 2 mps 622 mmHg 72%
    10:00 +6°C° 0 mm 2 mps 622 mmHg 66%
    11:00 +8°C° 0 mm 2 mps 622 mmHg 61%
    12:00 +9°C° 0 mm 2 mps 622 mmHg 55%
    13:00 +9°C° 0 mm 2 mps 622 mmHg 54%
    14:00 +9°C° 0 mm 3 mps 621 mmHg 54%
    15:00 +9°C° 0 mm 3 mps 621 mmHg 54%
    16:00 +6°C° 0 mm 2 mps 620 mmHg 64%
    17:00 +4°C° 0 mm 2 mps 618 mmHg 74%
    18:00 +1°C° 0 mm 2 mps 617 mmHg 85%
    19:00 +1°C° 0 mm 2 mps 617 mmHg 85%
    20:00 -1°C° 0 mm 2 mps 617 mmHg 84%
    21:00 0°C° 0 mm 1 mps 617 mmHg 84%
    22:00 -2°C° 0 mm 2 mps 616 mmHg 84%
    23:00 -2°C° 0 mm 2 mps 616 mmHg 84%

    3 March, Friday

    Time Temperature Precipitation Wind Pressure Humidity
    00:00 -2°C° 0 mm 2 mps 616 mmHg 84%
    01:00 -2°C° 0 mm 2 mps 615 mmHg 85%
    02:00 -2°C° 0 mm 2 mps 615 mmHg 85%
    03:00 -2°C° 0 mm 2 mps 614 mmHg 86%
    04:00 -2°C° 0 mm 2 mps 614 mmHg 86%
    05:00 -2°C° 0 mm 2 mps 614 mmHg 86%
    06:00 -2°C° 0 mm 2 mps 613 mmHg 86%
    07:00 0°C° 0 mm 3 mps 614 mmHg 79%
    08:00 +2°C° 0 mm 3 mps 614 mmHg 73%
    09:00 +4°C° 0 mm 3 mps 615 mmHg 66%
    10:00 +5°C° 0 mm 3 mps 615 mmHg 63%
    11:00 +7°C° 0 mm 3 mps 615 mmHg 60%
    12:00 +7°C° 0 mm 4 mps 615 mmHg 56%
    13:00 +8°C° 0 mm 3 mps 614 mmHg 58%
    14:00 +7°C° 0 mm 3 mps 613 mmHg 60%
    15:00 +7°C° 0 mm 3 mps 613 mmHg 61%
    16:00 +4°C° 0.1 mm 3 mps 612 mmHg 69%
    17:00 +3°C° 0.1 mm 3 mps 611 mmHg 76%
    18:00 +1°C° 0.1 mm 3 mps 610 mmHg 83%
    19:00 +1°C° 0.1 mm 3 mps 610 mmHg 84%
    20:00 0°C° 0.1 mm 3 mps 611 mmHg 86%
    21:00 0°C° 0.1 mm 3 mps 611 mmHg 87%
    22:00 -1°C° 0 mm 2 mps 610 mmHg 88%
    23:00 -1°C° 0 mm 2 mps 610 mmHg 89%
    Show more